Theta_e
320 321 321 321 321 320 323 323 328 332 328 327 329 330 324 325 327 325 327 329 330 330 330 330 329 332 334 337 337 336 336 337 339 340 341 337 333 335 335 334 337 337 337 336 337 335 332 330 330 333 334 333 332 332 331 330 331 331 330 327 325 323 321 318 314 313 314 316 323 326 324 324 324 323 323 321 318 319 321 321 320 315 310 309 309 309 310 311 311 312 312 313 312 312 312 311 311
321 321 321 321 322 322 324 322 326 332 328 325 325 326 323 327 331 328 331 332 331 330 328 328 330 333 334 336 336 337 338 337 338 338 336 333 334 336 335 336 337 337 337 336 336 334 330 325 326 330 332 331 332 332 331 331 331 331 329 326 322 320 319 316 313 314 315 317 321 323 324 324 323 323 322 322 319 317 318 318 319 320 320 318 314 311 311 311 311 313 313 313 312 312 312 312 312
321 321 321 321 322 323 325 323 325 327 324 323 323 324 327 331 333 331 331 331 331 330 327 328 331 333 335 338 338 340 339 336 337 336 334 334 336 337 336 337 336 336 336 336 334 331 328 324 323 325 328 330 332 333 331 331 331 330 328 324 320 317 316 314 314 316 317 317 318 320 323 324 324 323 321 321 318 318 321 320 323 326 327 327 324 316 311 311 312 313 313 313 312 312 312 312 312
322 321 321 320 320 324 326 325 327 324 322 326 323 323 332 334 333 331 330 331 331 330 329 331 331 332 336 338 338 338 337 336 337 336 335 335 336 337 336 335 334 335 335 333 330 326 325 325 324 323 324 327 332 333 331 331 331 329 326 321 317 315 314 313 313 315 318 318 319 322 323 324 323 320 319 318 314 316 320 318 323 327 329 330 330 321 311 311 312 314 313 313 312 312 312 312 313
322 321 322 320 321 324 325 325 328 325 321 327 323 323 333 333 332 330 330 331 331 330 330 330 331 333 335 337 337 337 337 336 335 335 334 334 335 336 335 333 332 332 332 332 329 323 321 323 323 322 322 325 331 333 332 331 330 328 324 317 314 314 313 312 314 314 315 316 317 318 319 319 319 316 316 318 315 317 319 318 323 328 329 329 329 322 312 311 312 313 313 313 313 313 313 313 313
321 322 323 323 323 322 324 324 328 328 322 326 322 326 333 330 331 329 329 331 330 330 329 331 332 332 336 337 337 337 337 336 335 335 334 333 333 335 335 334 331 329 329 330 329 323 319 319 317 319 322 324 330 332 331 331 329 325 320 316 313 312 312 312 314 315 313 314 315 314 315 315 315 314 314 317 316 318 317 316 321 325 326 326 326 319 312 311 312 313 313 313 313 313 313 312 312
321 322 323 324 325 322 325 325 327 329 323 322 321 328 332 328 329 328 329 329 328 328 328 331 331 332 336 337 338 338 337 336 336 335 334 332 331 334 335 334 331 329 329 328 328 322 317 315 315 320 323 325 329 330 330 331 327 321 318 315 313 312 313 313 313 315 314 315 315 315 316 314 314 314 313 315 316 318 317 316 319 319 320 321 319 314 311 312 312 313 313 313 313 313 312 312 312
321 322 321 324 329 326 327 327 330 329 321 318 320 327 330 327 327 327 328 328 327 327 326 327 327 333 336 336 337 337 337 336 336 335 334 333 330 331 333 333 331 331 332 330 326 318 315 317 321 326 328 327 328 329 330 329 325 320 317 313 313 314 313 314 316 316 316 317 317 314 314 313 312 313 313 314 316 318 318 320 321 319 317 316 313 312 312 311 312 313 313 313 312 312 312 312 312
321 322 322 325 330 329 329 329 328 326 321 319 319 324 329 328 326 325 326 325 327 327 325 325 326 334 336 336 337 337 337 337 336 336 335 334 330 328 330 331 329 329 330 330 324 315 316 322 327 330 330 329 328 329 329 327 324 320 317 312 313 318 316 314 317 317 316 318 316 312 312 311 311 311 312 313 314 315 317 321 322 321 319 314 312 312 312 311 312 313 313 313 312 312 312 312 312
322 322 322 326 328 326 329 330 325 322 321 319 318 322 326 327 326 325 324 323 326 326 326 324 326 334 336 336 337 337 336 336 337 336 336 335 330 329 330 330 328 326 324 327 324 316 318 325 329 330 329 329 328 328 328 325 322 318 315 312 313 318 318 315 314 316 315 314 312 311 311 311 311 310 311 313 314 314 315 319 321 322 320 314 312 312 312 312 312 313 312 312 312 312 312 313 313
323 322 321 326 327 325 328 331 326 320 320 319 319 321 323 325 325 324 322 324 326 325 324 321 323 332 336 336 336 336 336 335 335 335 335 332 330 331 331 331 329 326 322 323 323 317 319 325 328 329 328 329 328 327 326 323 320 315 313 311 312 315 315 314 313 314 313 311 310 310 310 309 309 309 310 312 313 314 314 316 318 319 316 313 312 312 312 313 313 312 312 312 312 313 313 313 314
324 325 323 326 328 327 327 329 326 322 325 325 320 320 322 324 325 323 322 325 327 326 323 322 324 328 335 336 336 336 335 335 334 334 332 330 331 332 331 330 329 327 323 322 321 316 318 324 327 329 329 329 328 325 323 321 318 313 310 310 311 312 312 313 313 313 312 310 309 309 309 309 309 309 310 311 312 313 313 314 315 315 313 312 312 312 313 312 312 312 312 313 313 313 313 314 314
323 325 325 326 330 327 326 327 329 330 329 325 320 320 322 323 325 323 321 324 326 327 323 323 323 324 334 336 336 336 335 334 335 331 329 331 332 332 331 329 328 326 323 321 321 317 317 322 326 329 329 328 327 323 320 319 315 311 309 309 310 311 312 312 311 312 311 310 309 308 308 308 309 310 311 312 312 312 312 313 313 312 312 312 312 312 312 312 312 312 313 313 313 313 313 314 314
322 323 325 328 331 328 326 328 331 332 325 322 321 321 323 323 324 322 323 327 326 324 322 322 320 323 335 337 336 335 335 334 335 331 327 330 332 332 331 328 326 326 323 323 322 318 317 321 325 329 330 328 326 321 318 317 312 309 309 309 309 310 311 312 311 311 311 310 309 308 308 308 309 311 312 312 312 312 312 312 312 312 312 313 313 312 312 312 313 313 313 313 314 314 314 315 315
321 321 324 328 330 328 329 329 329 330 321 321 323 321 324 323 323 323 324 329 327 323 322 322 317 322 332 336 337 335 334 334 334 332 327 328 330 331 330 328 325 325 325 325 324 319 316 320 324 329 330 328 323 319 316 314 311 309 309 309 309 310 311 311 312 312 311 310 308 308 308 308 310 311 312 312 312 312 312 312 312 312 312 313 312 312 313 313 313 313 314 314 314 315 316 316 316
322 323 326 327 328 328 330 327 325 326 320 320 322 321 324 322 322 324 324 326 327 323 323 322 319 323 328 330 334 333 333 333 333 333 330 326 327 329 328 327 325 324 325 325 325 321 317 318 322 326 329 327 322 319 315 312 310 309 308 309 309 310 312 312 312 312 310 309 308 308 308 309 310 311 312 313 313 313 312 313 312 312 312 313 313 313 313 314 314 314 314 314 315 316 317 317 317
321 324 328 326 327 327 325 323 322 323 320 319 320 321 323 322 322 322 323 323 325 324 324 325 322 323 326 327 331 333 332 333 332 333 332 328 326 327 327 326 326 324 325 327 326 322 319 320 322 324 326 325 321 318 316 312 310 309 308 308 309 310 310 311 311 310 309 309 308 308 308 309 310 311 312 312 313 313 313 313 313 313 312 313 313 313 314 314 314 315 315 315 315 316 318 317 317
323 328 326 326 330 326 322 319 319 320 319 318 317 319 321 322 322 321 321 322 323 324 324 326 324 323 326 327 332 333 332 332 332 331 332 330 326 326 325 324 325 325 326 328 327 324 321 321 323 324 325 323 319 317 315 312 311 310 308 308 309 309 309 310 310 310 309 308 308 308 308 309 309 311 312 313 313 313 313 313 313 313 313 313 313 314 314 315 315 315 315 315 316 316 317 317 317
325 331 327 327 329 322 318 317 316 318 317 317 317 318 320 320 321 321 321 321 322 324 326 326 326 329 330 330 333 332 330 330 330 330 331 330 327 324 323 321 322 324 326 328 327 325 323 320 321 324 325 322 317 316 314 311 311 310 308 309 309 309 309 309 309 309 309 308 308 308 308 308 309 311 312 313 313 313 314 313 313 313 312 313 313 314 314 314 315 315 315 315 316 316 316 317 317
322 328 331 332 327 317 317 316 316 317 317 317 317 318 318 318 319 320 320 320 320 322 326 326 327 332 333 332 332 331 329 329 329 329 330 331 327 323 321 319 320 322 324 326 326 325 323 319 317 322 325 323 319 317 314 311 311 310 309 309 309 309 309 309 309 308 308 308 308 308 308 308 309 311 312 313 313 314 314 313 313 313 313 313 313 314 314 315 315 315 315 316 316 316 317 318 317
320 324 330 329 322 317 317 316 316 317 317 317 317 317 317 317 318 318 318 320 321 319 322 325 325 328 331 332 332 330 329 329 329 329 330 331 325 321 321 320 321 322 322 324 326 326 324 320 316 318 323 324 324 320 316 312 309 310 309 309 309 309 309 308 309 308 308 308 308 308 308 309 309 310 312 313 313 313 314 314 313 313 313 313 313 314 314 315 315 315 316 316 316 316 318 319 317
322 322 323 322 318 317 317 316 316 317 317 317 317 318 317 317 317 318 317 319 322 319 320 321 322 325 327 329 330 330 329 328 328 327 328 329 325 321 321 321 322 324 324 323 325 326 325 322 317 317 319 321 325 323 318 315 310 310 309 309 309 308 309 309 308 309 308 308 308 308 309 309 309 309 311 312 313 313 313 313 314 313 313 313 314 314 315 316 316 316 317 316 317 317 318 321 319
323 323 321 320 318 316 317 317 317 318 319 318 318 319 318 317 317 317 317 318 319 319 319 319 320 323 324 325 327 327 327 326 326 323 325 327 325 323 323 322 322 324 325 324 324 325 324 322 319 320 320 319 322 323 321 318 310 309 310 309 309 308 308 308 308 309 308 308 308 308 309 309 308 309 310 311 312 313 313 313 313 313 313 314 314 315 316 316 316 317 316 316 320 320 321 322 321
323 323 320 320 319 317 318 318 318 320 319 319 319 320 320 319 318 318 318 317 318 318 318 318 319 321 324 325 325 324 324 323 324 322 323 325 325 326 326 326 325 324 325 326 326 326 323 320 319 321 322 319 318 318 320 318 311 310 310 309 309 308 308 308 309 308 308 308 308 308 308 308 308 308 309 310 312 313 313 313 313 313 314 314 315 315 316 316 316 317 316 317 320 321 322 322 321
321 322 320 319 319 318 319 319 319 320 320 320 320 319 321 321 319 318 318 319 318 318 318 318 319 321 324 325 324 324 323 322 322 323 323 325 326 328 330 330 329 327 326 326 326 327 325 319 316 318 318 316 314 313 316 315 313 312 310 309 309 308 308 309 309 309 309 308 308 308 308 308 308 308 309 310 311 312 313 313 313 313 314 314 315 315 316 316 317 317 317 319 320 320 321 320 321
320 320 319 318 318 319 320 320 320 321 321 321 321 320 321 321 319 318 319 319 319 318 318 318 318 321 323 325 325 324 324 322 321 322 323 325 327 328 331 331 331 330 328 327 327 327 326 321 317 316 314 313 313 312 312 312 312 311 309 308 308 308 309 309 309 309 309 308 308 308 307 308 308 308 308 309 311 312 312 313 313 313 314 315 315 315 316 316 317 317 318 319 320 321 321 321 322
320 320 318 317 318 320 321 321 321 322 322 322 322 322 322 321 318 319 320 319 319 318 317 318 318 320 323 325 327 325 324 322 320 320 322 326 327 328 330 332 331 331 330 329 328 327 327 325 320 319 317 314 313 312 312 311 310 310 310 309 309 309 309 309 309 309 309 308 308 308 308 308 308 308 308 309 310 312 313 313 313 314 314 315 315 315 316 316 317 317 318 320 320 321 319 319 321
320 320 320 319 320 321 322 322 323 323 323 322 322 321 321 321 319 319 320 320 320 319 317 318 318 320 323 326 328 327 325 323 322 322 321 322 324 325 329 331 331 332 331 330 329 328 328 326 324 322 321 319 317 315 315 315 313 312 312 311 310 310 309 309 309 309 309 308 308 308 308 308 308 308 308 309 310 312 313 314 314 315 315 315 315 316 316 316 317 318 320 320 320 320 318 319 320
320 321 322 322 322 323 323 322 323 323 323 321 321 323 323 322 321 320 321 322 321 319 317 318 318 319 324 328 329 327 325 325 326 323 319 317 319 321 325 329 331 332 332 331 330 329 328 327 326 324 323 322 321 319 319 320 318 317 315 312 311 310 309 309 309 309 309 309 309 308 308 308 307 308 308 309 310 312 313 314 314 314 315 315 316 316 317 317 318 319 320 320 320 320 319 320 320
322 322 323 325 325 325 323 322 323 323 323 322 322 326 325 322 322 322 322 323 321 320 318 318 318 318 323 329 330 328 326 326 326 323 319 318 319 320 322 326 330 332 332 332 331 330 329 328 327 326 325 323 322 321 321 323 323 321 319 316 313 312 311 311 310 309 309 309 309 309 309 309 308 308 308 309 309 311 312 313 314 314 315 317 318 319 319 318 318 318 318 319 321 320 319 321 320
324 323 324 327 327 325 323 322 323 323 323 322 323 325 325 322 323 322 321 322 320 319 318 317 318 318 321 326 329 328 327 326 325 323 321 320 320 320 321 323 328 331 333 332 332 331 330 330 329 327 326 325 323 322 322 323 323 324 323 320 317 314 313 313 311 311 310 310 310 310 310 310 309 309 309 309 310 311 312 313 314 315 317 319 320 321 319 318 317 318 319 320 320 320 319 322 320
324 326 327 327 327 326 326 324 322 324 322 320 323 325 324 323 323 323 322 321 319 318 318 318 318 319 320 323 326 327 327 327 326 325 324 323 322 322 322 322 325 329 332 333 333 332 331 331 330 329 327 326 326 324 323 323 323 324 324 323 321 318 315 314 314 313 312 311 311 311 312 312 311 311 311 311 310 311 313 313 315 317 319 321 321 320 319 318 318 319 320 320 320 319 320 321 320
324 327 329 327 326 327 328 325 322 323 320 317 322 325 325 323 321 322 322 320 319 318 318 318 318 320 321 322 323 325 327 328 328 327 326 325 325 324 323 322 322 325 329 332 333 332 332 331 331 330 328 326 326 326 325 324 323 323 323 324 323 321 319 317 316 315 315 314 312 313 313 314 314 314 313 313 312 313 314 315 316 319 320 320 320 319 319 318 319 319 319 320 320 319 319 320 320
326 326 328 328 326 326 328 327 322 321 319 317 318 321 323 322 320 320 319 318 319 318 318 318 318 320 321 321 322 324 326 327 327 326 325 325 326 326 325 324 323 323 325 329 332 333 332 331 331 330 330 328 327 326 326 325 324 323 323 323 323 323 322 320 319 318 317 317 316 315 315 315 316 316 317 316 316 317 317 318 319 320 320 320 319 320 319 319 319 318 318 320 320 319 319 319 320
327 326 328 329 328 326 327 328 322 319 319 318 318 318 318 318 318 319 318 317 317 317 317 317 317 318 320 321 321 322 325 326 325 323 323 324 326 327 327 327 326 324 323 325 329 332 333 332 331 330 330 329 328 327 327 326 325 324 323 322 322 323 323 322 322 321 320 319 318 317 317 317 316 317 317 317 317 318 319 319 319 320 320 320 320 320 320 319 318 317 319 320 319 319 320 320 320
328 327 327 329 331 328 327 325 320 317 320 320 320 318 317 317 316 317 318 318 317 317 317 317 317 317 318 321 321 322 324 324 321 320 322 324 325 327 328 328 328 326 324 323 325 329 331 332 331 330 329 329 329 329 328 327 326 325 324 323 323 323 324 324 323 321 321 321 320 319 318 318 317 317 317 318 318 318 318 319 319 320 320 320 320 320 320 319 317 317 319 320 319 319 321 321 320
327 328 328 329 331 330 328 325 317 315 320 321 320 320 319 319 318 317 318 319 317 316 316 316 317 317 317 319 321 322 323 322 320 320 322 323 324 325 327 328 329 328 327 325 324 324 326 329 330 329 328 328 328 329 329 328 327 327 327 326 325 325 326 325 324 322 321 321 320 320 319 318 317 317 318 318 318 318 318 318 318 319 320 320 320 319 320 319 318 318 319 321 321 320 321 321 318
327 329 329 329 331 331 328 324 317 315 320 324 321 320 319 319 319 318 319 319 319 318 317 316 317 317 317 318 320 322 322 321 321 321 322 324 324 324 326 327 328 328 326 325 324 322 322 324 325 326 327 327 327 328 329 329 328 328 327 327 326 326 326 326 325 324 322 320 320 319 318 317 317 317 318 318 318 318 318 319 318 318 319 319 319 319 319 319 319 318 319 321 322 321 322 321 318
328 330 330 330 332 331 326 320 317 316 321 328 326 323 322 321 320 320 320 321 321 321 320 319 318 317 317 317 318 320 322 321 320 320 321 322 323 324 325 326 325 324 324 324 325 324 323 321 320 322 325 326 326 327 327 328 328 328 327 327 327 327 327 327 327 326 324 322 320 320 318 318 317 318 318 319 319 318 318 319 319 319 319 319 319 319 319 319 319 319 319 321 322 322 322 320 318
328 330 331 333 332 331 329 321 317 319 322 327 327 324 322 320 319 319 319 320 322 322 322 322 321 319 318 317 318 318 319 320 319 319 320 320 321 324 325 324 322 322 323 324 324 323 322 319 317 318 321 324 325 326 326 327 328 328 328 327 327 327 327 328 328 327 326 325 323 322 321 320 320 320 320 321 320 319 319 319 318 318 319 319 319 319 319 319 319 319 319 320 320 321 321 320 318
327 328 330 332 331 331 330 323 318 318 321 321 320 323 324 322 320 319 318 318 319 321 321 322 322 321 320 318 317 318 318 318 318 318 319 320 321 322 322 321 321 321 321 320 319 319 318 317 317 317 318 319 321 324 326 326 327 327 328 328 328 328 328 329 329 329 328 327 325 324 322 322 321 321 320 321 321 321 320 320 319 319 319 319 319 319 319 319 319 319 320 320 320 320 320 319 317
327 327 327 329 330 330 327 322 319 322 326 322 318 326 333 329 323 321 319 318 319 319 319 320 321 321 320 318 317 317 317 318 318 318 319 319 319 319 320 321 322 320 318 316 315 315 315 316 316 317 317 317 318 320 323 325 326 327 327 327 328 328 328 328 328 328 327 326 325 324 324 323 323 322 321 322 322 321 321 320 320 319 319 320 320 320 320 320 319 320 321 322 321 321 320 319 317
327 327 328 328 329 330 326 322 323 328 330 323 317 326 333 329 323 321 320 320 320 320 318 318 320 320 320 319 317 317 317 317 317 318 318 318 319 319 319 320 320 318 316 315 315 315 315 316 316 316 315 315 316 316 318 321 323 325 326 326 326 326 326 326 325 325 325 325 325 325 325 325 324 324 323 323 323 322 321 321 320 320 320 320 320 320 320 320 321 321 321 321 322 322 322 319 317
328 329 329 329 329 331 328 327 328 328 328 324 318 321 326 325 324 322 321 322 321 320 319 318 318 319 320 319 319 318 317 317 317 317 318 318 319 319 318 317 316 315 315 315 315 315 315 315 315 316 316 315 315 315 315 316 318 320 323 324 325 326 325 325 324 324 324 324 324 325 325 326 326 326 325 324 324 323 322 322 321 321 320 321 322 321 321 321 322 322 321 321 323 323 322 320 317
329 332 330 329 329 330 328 329 329 326 327 328 322 321 326 326 326 324 321 322 322 321 321 319 318 318 320 320 320 320 318 317 317 317 317 317 318 318 318 317 316 315 315 315 314 314 314 315 315 316 316 316 315 315 315 315 315 316 318 321 323 324 324 324 324 324 324 324 323 324 325 325 326 326 325 325 324 323 323 322 322 322 322 322 323 322 322 322 322 323 322 321 323 324 322 320 317
327 329 329 329 328 328 327 329 330 327 329 331 325 323 328 329 329 326 322 322 323 321 320 319 317 319 320 320 321 321 320 318 317 317 317 317 318 318 318 318 317 316 315 315 315 314 314 314 315 315 315 315 316 316 315 315 315 315 316 317 319 320 321 323 323 323 323 324 323 323 323 323 324 324 324 324 323 323 323 323 322 322 323 323 323 323 322 321 322 323 323 322 323 324 323 321 317
324 326 327 327 327 328 329 329 329 330 330 330 328 325 326 329 330 327 323 324 323 320 320 319 318 318 319 320 322 322 321 320 318 317 317 317 318 318 318 318 318 317 316 316 315 315 315 314 315 315 315 315 316 316 316 316 316 316 315 315 316 316 318 320 321 321 321 322 322 321 321 322 322 323 323 322 322 322 322 322 322 323 323 324 324 323 322 321 321 322 323 323 323 323 323 322 318
325 327 326 326 327 328 329 326 327 332 330 325 326 326 325 327 330 329 326 325 325 322 321 322 319 318 319 320 321 322 322 321 319 318 317 317 318 318 318 318 318 318 317 317 316 315 315 314 314 314 314 315 315 316 316 316 316 316 315 315 315 315 316 317 318 318 318 318 318 318 319 320 321 322 323 322 322 321 321 321 322 323 323 323 324 324 323 322 321 322 323 323 323 322 321 322 320
325 326 326 327 328 327 329 327 327 331 327 319 321 325 326 325 325 327 324 322 324 321 318 320 319 318 320 321 321 322 322 322 321 319 318 317 318 318 318 318 318 318 318 317 317 316 315 314 314 314 314 314 315 316 316 316 316 315 315 315 315 315 316 316 316 316 316 316 317 318 319 319 319 320 321 321 320 321 321 322 322 322 323 323 323 324 324 323 322 323 323 323 323 322 320 321 319
324 324 325 329 328 328 331 329 327 329 327 321 321 324 324 324 324 324 322 321 321 319 317 318 317 318 320 320 320 321 321 321 321 320 319 318 318 318 318 318 318 318 317 317 317 317 316 315 315 314 314 315 315 315 316 316 316 315 315 315 316 316 316 316 316 316 316 317 317 318 318 318 318 318 318 318 319 320 321 322 322 322 323 322 323 323 324 324 323 323 323 324 324 322 320 319 317
324 324 325 327 328 329 329 328 327 328 324 320 321 324 325 327 328 322 316 316 316 316 318 319 319 319 320 320 320 320 319 319 319 318 318 318 318 318 318 318 318 317 317 317 317 317 317 317 316 316 315 316 315 316 316 316 316 315 316 317 317 317 317 317 317 317 318 318 318 318 318 318 318 318 317 318 319 320 321 322 323 323 323 323 323 323 324 324 324 323 324 324 324 323 321 318 316
324 325 327 326 327 329 328 327 328 328 325 320 320 324 326 326 325 318 314 315 315 314 316 317 318 319 320 321 321 320 319 318 318 318 318 318 318 318 318 317 318 317 317 317 317 317 318 317 317 317 317 317 317 317 317 316 316 317 317 317 317 318 319 319 318 318 318 318 319 319 319 318 318 318 319 319 320 321 322 323 323 323 323 323 323 324 324 324 324 323 323 323 323 322 321 319 318
324 325 327 324 326 331 329 326 325 325 327 324 321 324 324 322 322 319 318 320 318 317 316 314 315 317 317 319 320 320 320 318 317 317 317 318 317 317 317 317 317 317 317 317 317 318 318 318 318 318 318 318 318 318 317 317 318 318 318 318 317 318 319 318 318 317 318 319 320 320 320 320 320 320 320 320 320 321 322 323 324 324 324 324 324 325 325 324 325 324 323 321 320 320 320 319 320
324 326 325 322 326 331 331 328 324 323 325 324 322 323 323 323 325 324 322 322 320 320 319 315 314 315 315 317 319 319 319 318 317 317 316 316 316 316 316 315 315 316 316 316 317 317 317 317 317 316 316 316 316 316 316 317 317 318 317 317 317 317 317 317 317 318 320 321 321 321 321 321 321 321 321 321 321 322 322 324 325 325 325 325 325 325 325 325 325 325 322 320 319 319 319 319 320
321 324 322 324 327 327 327 328 326 325 325 326 324 322 322 322 324 325 323 324 325 323 321 319 315 313 314 317 319 318 317 317 316 316 316 316 316 316 315 315 315 315 315 315 315 315 314 314 314 314 314 314 314 314 314 315 315 316 316 316 317 317 317 317 318 319 321 322 322 322 323 323 322 322 322 322 322 322 323 324 325 326 326 326 326 326 326 325 325 324 320 319 319 319 319 320 320
320 322 321 325 327 325 325 326 328 328 325 326 326 323 325 323 320 322 322 322 325 324 324 323 316 313 316 318 318 317 315 315 315 315 316 315 315 315 314 314 314 314 315 314 314 313 314 314 313 313 313 312 313 313 313 313 313 314 315 316 317 318 320 320 321 322 323 323 323 324 324 324 324 324 324 323 323 323 324 325 326 326 326 327 327 327 326 326 325 323 321 320 320 319 319 319 318
322 323 323 325 324 324 326 325 329 331 326 328 327 324 331 329 319 319 321 321 321 322 326 325 316 315 319 318 316 316 315 315 314 314 314 313 313 313 313 313 313 313 313 313 313 313 313 313 313 313 313 313 313 313 312 312 312 312 313 314 316 318 321 322 324 324 324 324 325 325 326 326 326 325 325 324 324 324 324 325 326 327 326 326 327 326 326 326 325 324 323 322 322 320 319 319 318
322 323 322 324 322 323 327 326 327 327 326 329 328 324 332 333 321 317 319 320 319 318 320 320 316 317 318 316 315 314 313 313 313 312 312 312 312 312 312 312 312 312 312 312 312 312 313 313 313 313 313 313 314 313 312 312 311 311 311 312 313 315 318 321 323 324 324 325 325 326 326 326 326 326 325 325 325 325 325 326 326 326 325 325 325 326 327 327 327 325 324 324 323 321 320 319 319
Wind_Speed
3 5 8 9 10 8 6 7 3 1 2 0 3 1 1 1 3 3 4 6 5 4 9 11 13 14 8 10 14 14 13 4 2 2 4 12 18 15 12 13 13 13 14 14 13 11 11 11 10 9 8 6 4 3 3 3 4 4 4 4 4 5 5 6 7 8 8 10 11 11 9 8 8 7 9 10 10 11 11 11 11 11 12 12 12 11 11 11 11 12 12 13 13 13 13 13 12
4 6 8 10 9 7 6 5 2 2 4 2 2 2 0 3 6 5 5 5 5 5 8 11 13 16 14 15 12 11 13 9 7 11 16 20 18 13 12 13 14 14 14 14 13 12 10 10 10 9 8 6 5 4 3 3 4 4 4 5 5 5 5 6 7 8 8 10 11 12 12 11 10 10 12 11 11 12 12 11 11 12 13 12 11 10 10 11 11 12 13 14 15 15 15 14 14
5 6 8 10 9 7 6 4 2 1 3 0 3 1 2 6 5 4 7 9 11 10 9 9 10 15 14 11 10 7 6 8 14 19 22 21 18 15 13 13 15 13 13 14 13 12 11 10 9 9 9 7 5 4 3 3 3 3 4 4 5 5 6 8 8 8 9 10 11 12 12 11 11 11 11 11 12 13 12 12 13 14 14 13 10 9 9 10 11 13 14 14 15 16 16 16 15
5 6 7 9 8 5 2 3 2 2 1 2 0 2 4 6 5 5 9 12 12 9 9 7 6 10 14 10 8 10 8 7 13 18 21 21 19 18 16 16 16 13 14 15 14 12 11 10 9 8 8 7 6 4 3 3 3 3 3 4 5 5 6 8 8 8 9 10 10 11 11 10 10 10 10 10 11 12 12 13 15 15 14 12 10 9 9 9 11 13 14 14 15 16 16 16 16
5 6 6 7 6 3 1 2 1 3 2 2 3 3 5 7 6 5 9 11 9 8 8 6 4 7 13 9 6 7 8 10 12 16 20 21 20 17 14 14 15 14 14 14 13 12 11 10 10 9 8 7 6 4 3 3 2 2 2 3 5 6 7 8 8 8 8 9 9 10 9 9 8 9 9 9 10 11 11 13 14 14 13 11 9 8 8 9 11 13 14 14 15 15 16 16 16
5 5 5 7 5 3 1 1 2 2 4 3 5 4 6 7 9 10 11 11 8 8 9 8 5 7 10 10 10 9 7 9 12 15 18 20 22 19 14 11 13 15 14 13 12 13 12 11 10 10 9 8 7 5 4 3 2 2 2 3 5 7 7 8 8 8 8 8 9 9 8 8 7 8 8 8 10 11 11 12 12 12 11 10 9 7 8 10 11 12 13 14 14 15 15 15 15
5 4 5 6 4 2 2 1 3 2 4 2 6 5 7 10 14 13 9 7 5 6 8 8 8 8 7 8 10 9 6 8 11 14 15 19 22 21 18 14 13 13 13 12 10 12 14 11 11 10 10 9 8 5 4 3 3 3 3 3 6 8 8 8 9 8 8 7 8 8 8 8 7 8 8 8 10 11 11 11 10 10 10 9 8 8 8 10 11 12 13 13 14 14 15 15 15
4 5 5 3 2 2 1 2 3 3 2 2 7 8 11 14 15 11 5 4 3 4 6 5 6 7 4 8 7 6 7 8 9 11 12 16 20 21 21 18 16 14 13 11 8 12 15 12 12 11 10 10 8 6 4 4 4 4 3 4 7 9 9 9 9 8 8 8 8 9 8 8 8 8 7 8 9 10 11 10 10 9 9 9 7 8 9 10 11 11 12 13 14 14 15 15 15
4 4 3 2 1 3 2 3 3 3 1 1 6 9 16 17 15 11 5 5 6 6 6 4 5 5 6 12 11 7 8 8 9 11 11 13 17 19 20 20 19 17 15 12 9 12 15 13 12 12 11 9 8 6 4 4 4 4 4 5 7 9 9 8 8 8 8 8 8 9 8 7 8 8 7 7 8 9 10 10 10 9 9 9 9 8 9 10 11 11 12 12 13 14 14 14 14
3 3 1 2 1 3 4 3 1 2 1 3 6 10 13 15 16 13 8 7 9 8 6 4 5 9 11 12 11 8 8 8 10 11 11 13 17 18 19 19 18 17 16 13 10 13 15 13 13 12 10 9 7 6 5 5 4 4 4 6 7 8 8 8 8 7 7 7 8 8 8 7 7 8 7 7 8 8 9 10 10 9 8 9 10 9 9 10 10 11 12 12 13 14 14 14 14
3 1 1 1 2 1 3 4 1 1 1 2 5 8 8 9 12 12 12 9 10 10 5 2 5 13 14 8 9 9 8 8 9 10 13 17 19 19 19 19 18 17 15 12 11 14 15 13 13 12 11 9 8 6 6 6 4 4 5 7 8 7 7 7 8 7 7 7 7 7 7 7 6 7 7 7 7 7 9 10 10 9 9 10 10 10 10 10 10 11 11 12 12 13 13 13 13
3 1 2 1 1 2 3 4 2 1 4 4 4 4 5 6 7 8 12 9 11 11 5 3 2 8 9 5 10 12 10 9 8 10 16 21 20 19 19 19 18 16 14 13 12 14 15 13 14 13 11 9 8 7 6 6 5 6 6 8 8 7 7 7 8 7 7 8 7 7 6 6 6 6 6 7 7 8 9 9 10 9 10 10 10 10 10 10 10 11 11 11 12 12 12 12 12
3 1 3 1 2 2 3 3 1 2 5 3 2 2 4 4 5 5 13 10 10 10 5 5 3 4 6 5 11 13 12 11 9 11 20 22 20 20 19 19 17 15 14 13 12 15 15 14 14 13 12 10 9 8 7 7 7 8 7 8 8 7 7 7 8 7 8 8 7 7 7 6 6 7 7 7 8 8 9 9 10 10 10 10 10 10 10 10 10 10 10 11 11 11 11 11 11
3 4 2 1 1 1 2 3 0 4 2 3 3 2 3 4 7 7 13 8 5 9 8 6 5 4 6 7 10 14 15 14 11 13 21 22 21 21 19 18 16 15 14 12 13 15 16 15 15 14 13 10 10 8 8 9 9 10 9 8 8 7 7 7 7 7 8 9 8 8 7 7 7 7 8 8 9 9 9 9 9 10 10 10 9 9 10 10 9 9 10 10 10 11 11 11 11
2 6 1 1 2 2 2 3 2 5 1 4 2 2 4 5 8 10 12 7 4 10 9 6 5 3 5 7 9 17 19 16 14 13 19 21 20 19 18 18 16 16 13 12 13 15 16 16 16 14 13 11 10 9 9 11 11 11 10 9 8 8 7 7 6 6 8 10 9 8 7 8 7 8 8 9 9 9 9 9 9 9 9 10 9 9 9 9 9 9 9 9 10 10 10 10 11
7 5 3 1 2 1 2 2 2 4 2 3 1 2 4 4 6 9 9 7 8 9 6 4 4 3 6 7 7 17 20 17 16 14 17 20 19 19 19 18 17 16 13 12 13 14 16 16 16 15 13 12 11 11 11 12 11 11 11 10 9 8 8 8 7 6 9 10 9 9 8 8 8 7 8 8 9 9 9 9 9 9 9 9 8 8 9 8 8 8 8 8 8 9 9 9 10
11 3 3 0 2 0 2 1 1 3 2 2 3 2 2 2 3 7 7 7 9 7 5 4 4 4 5 4 5 15 19 18 18 16 17 19 20 19 20 20 18 16 14 13 12 14 16 16 17 16 14 14 13 13 12 13 12 12 12 11 10 9 8 8 7 7 9 10 9 9 8 8 7 7 8 8 8 9 9 9 8 8 8 8 8 8 8 7 7 6 6 6 7 7 7 7 8
9 2 2 1 2 2 2 1 1 3 3 2 3 4 3 3 2 5 5 5 8 7 6 5 4 4 3 4 9 14 18 19 18 17 17 19 22 21 21 22 20 18 16 14 14 14 17 17 17 16 15 14 14 14 14 14 12 12 12 12 11 9 9 8 8 8 9 9 9 10 9 8 8 7 7 8 8 8 8 8 8 7 7 7 7 7 6 6 5 5 5 4 5 5 4 5 5
5 3 3 2 3 1 1 2 1 3 3 4 5 6 6 4 3 4 2 3 7 7 6 7 6 7 7 10 13 15 17 18 17 17 17 19 23 23 22 22 21 20 19 17 16 15 16 17 17 17 15 15 15 15 15 15 13 13 13 12 11 10 9 9 9 8 9 9 9 9 9 9 8 8 8 8 8 8 8 7 7 6 6 6 6 5 4 4 3 3 3 3 4 4 4 5 5
4 4 3 4 4 1 4 3 2 3 3 5 5 6 7 5 4 3 1 1 5 7 8 8 10 13 13 15 17 16 17 17 17 17 16 18 22 23 23 22 22 21 21 19 17 16 15 16 17 17 16 16 16 15 16 15 14 14 14 12 11 10 9 9 9 9 9 9 9 9 9 9 9 9 9 8 8 8 8 7 6 6 5 5 5 4 3 2 1 2 3 4 4 4 5 6 6
4 5 5 4 3 1 4 5 3 2 3 3 3 5 6 4 4 2 1 1 3 8 12 12 12 17 18 18 19 18 18 18 18 18 17 19 22 23 22 21 20 19 20 19 18 17 16 15 16 17 17 16 15 16 16 16 15 15 14 13 11 10 10 10 10 9 10 10 9 10 9 10 11 10 9 9 8 8 8 7 6 6 5 5 4 3 2 1 1 2 3 4 4 4 5 7 6
5 5 7 5 1 1 4 6 5 2 1 2 3 5 2 2 2 3 3 3 3 4 8 8 12 17 17 16 19 19 19 19 19 18 17 20 23 22 22 20 19 18 18 19 18 18 17 15 16 17 18 17 16 16 16 16 16 15 14 13 11 11 11 10 10 10 10 10 10 10 8 9 10 10 10 10 9 8 8 7 7 6 5 4 3 2 1 1 2 3 4 4 4 4 6 7 7
4 4 7 8 3 2 6 5 4 1 2 3 3 2 0 0 2 5 7 9 8 5 5 5 5 12 15 15 17 18 19 19 19 18 16 21 25 22 21 20 20 20 18 19 19 19 18 16 17 17 17 17 17 17 16 17 17 16 15 13 12 12 11 11 11 11 11 11 11 10 8 8 10 10 10 10 10 9 8 8 7 6 5 4 3 3 2 4 4 4 5 2 2 4 4 6 7
5 3 8 12 6 4 8 6 3 1 2 2 1 3 2 1 2 3 7 11 9 9 10 9 4 8 16 17 17 16 15 17 17 16 13 19 25 22 20 19 19 21 19 18 18 17 18 18 18 19 18 18 17 17 17 17 17 16 15 14 13 12 12 12 11 12 11 12 12 10 9 9 10 11 11 10 10 9 9 8 7 6 5 5 4 4 4 5 6 6 5 2 2 3 3 4 5
7 5 9 15 9 4 7 6 3 1 2 2 4 5 5 5 5 6 10 12 11 11 11 11 7 9 18 19 17 17 16 15 16 16 13 18 25 23 20 18 18 20 20 20 19 17 17 18 19 19 19 18 16 16 16 17 17 15 13 13 13 13 13 12 12 12 12 12 12 11 10 11 11 11 11 11 11 10 9 8 8 7 6 6 5 5 5 6 7 8 5 4 4 4 5 5 4
11 11 11 14 10 7 5 5 3 2 4 4 5 6 8 8 5 6 9 10 11 14 16 14 10 12 18 20 19 18 18 17 16 17 14 16 24 26 23 20 20 21 21 21 20 19 18 18 18 17 16 16 15 15 15 16 17 16 14 13 13 13 14 13 13 13 12 13 12 12 12 12 11 11 12 12 11 11 9 9 8 7 6 6 7 7 7 7 8 8 7 6 6 7 8 8 6
15 13 10 12 9 8 5 3 4 3 6 9 7 8 11 9 4 5 6 5 6 11 16 14 12 14 19 21 21 19 19 18 16 16 16 17 22 28 28 23 22 22 21 22 22 21 20 19 19 17 15 14 15 15 15 16 16 16 14 13 13 13 13 13 14 13 13 13 13 13 13 13 13 13 13 12 11 10 10 9 9 8 8 8 8 9 9 9 9 9 8 7 6 8 7 5 7
19 14 6 7 5 4 4 3 5 4 5 8 5 6 11 8 4 7 12 12 11 11 14 15 14 14 19 22 22 21 21 19 18 18 19 19 20 25 31 29 25 23 24 25 24 24 22 20 19 18 17 15 15 15 15 15 14 14 13 12 14 13 13 14 14 13 13 14 14 14 13 14 14 14 14 13 12 11 10 11 10 10 10 10 10 10 10 9 9 9 9 8 5 5 3 1 4
17 14 5 3 0 2 6 6 7 4 3 2 2 6 9 7 7 11 16 19 19 17 15 18 17 15 20 23 23 23 22 21 22 22 20 19 18 20 27 32 30 26 26 26 25 26 25 23 21 20 19 17 16 16 15 14 13 13 12 13 14 14 14 15 14 13 13 14 14 14 14 14 14 14 14 14 13 12 12 12 12 11 11 11 11 11 10 10 10 9 9 8 4 3 2 0 1
11 8 4 2 1 4 8 9 9 6 7 6 2 4 6 5 10 14 14 18 20 21 19 20 18 16 21 24 24 24 23 23 25 24 21 19 19 19 21 28 32 30 27 27 27 27 27 26 25 23 21 20 18 18 17 16 14 14 13 13 14 14 15 15 14 13 14 14 14 14 14 15 15 15 15 14 14 13 13 14 13 12 12 12 11 11 11 11 10 8 6 6 4 3 2 2 2
6 3 3 3 2 3 7 11 10 6 12 12 3 4 8 4 9 13 13 14 16 23 21 19 19 17 21 25 26 26 25 26 25 24 22 21 21 21 20 22 29 32 30 29 30 29 28 29 29 28 26 23 22 20 20 18 17 15 14 14 14 14 15 14 13 14 15 14 13 14 15 15 15 16 16 15 14 14 15 15 14 13 12 11 12 13 13 12 9 7 6 5 4 4 4 4 4
3 3 3 3 4 3 4 10 15 10 11 13 9 4 8 5 11 18 18 13 12 22 21 18 20 19 20 24 27 27 26 26 25 24 24 23 24 23 23 22 24 30 34 33 31 30 30 30 30 31 30 28 26 24 22 21 19 18 16 16 15 15 15 14 14 14 15 15 14 14 15 16 16 17 17 15 15 15 16 16 14 12 12 13 13 13 13 11 8 7 7 6 5 6 7 7 6
2 3 3 3 5 3 3 6 17 18 9 10 12 6 4 4 9 14 17 14 14 19 19 18 20 21 21 23 26 27 27 26 26 27 26 26 27 26 25 24 24 26 32 35 34 32 32 31 31 31 32 31 29 27 26 24 23 21 19 18 17 16 16 16 15 15 15 15 14 14 16 16 16 17 17 16 15 16 16 16 14 13 15 15 14 13 12 10 9 9 9 8 8 8 9 9 6
3 3 2 3 6 6 4 4 10 15 9 6 9 8 8 8 9 12 11 14 15 18 18 18 19 22 23 23 25 28 28 28 28 29 29 29 29 29 28 27 26 25 28 33 36 35 32 31 31 31 31 32 31 30 29 28 26 24 22 21 20 19 18 17 17 17 17 17 16 15 16 17 17 18 18 17 16 16 17 16 15 16 17 16 15 13 12 11 11 10 9 10 10 9 9 7 7
4 5 3 3 5 7 7 4 4 8 8 6 6 6 13 11 9 16 15 12 14 15 15 16 17 19 23 25 27 28 29 30 29 28 28 29 30 30 30 29 28 27 27 31 35 37 35 33 32 31 31 31 31 31 31 31 29 27 26 24 24 23 21 20 19 19 19 19 19 18 18 18 18 19 19 19 18 18 18 18 17 17 18 17 16 14 14 14 13 10 9 11 11 10 8 7 8
6 7 6 5 5 6 6 5 6 8 6 6 7 8 13 10 7 14 22 19 17 18 18 18 19 18 20 25 29 29 30 30 27 26 27 28 30 31 32 32 31 30 29 29 32 36 38 37 35 33 32 32 32 32 33 34 33 31 30 29 29 27 25 23 23 23 22 22 22 21 21 21 20 20 21 21 21 20 20 20 20 19 20 19 18 17 16 16 14 12 12 13 12 11 10 9 9
7 6 6 6 5 5 6 6 7 9 6 6 9 9 11 12 7 11 22 22 18 20 20 22 24 23 23 25 29 31 31 28 24 25 27 27 29 30 32 33 33 32 31 31 32 34 37 38 37 34 33 33 33 34 35 36 37 35 33 33 33 31 28 27 27 26 25 25 24 24 24 23 22 22 22 23 23 23 22 22 22 22 22 21 20 19 17 17 15 14 14 14 13 12 11 10 10
6 6 6 6 6 5 5 5 6 8 5 5 7 7 11 13 10 12 18 15 16 22 21 22 27 28 29 28 30 32 30 28 25 25 27 28 29 30 32 34 35 35 34 34 34 34 34 36 37 35 33 34 34 34 35 37 38 37 36 35 34 32 31 30 29 28 27 27 27 27 27 25 24 23 23 23 24 24 24 24 24 23 23 22 21 19 18 18 18 16 15 15 14 13 13 12 12
3 4 5 4 5 3 3 1 1 4 4 4 4 5 10 12 10 12 15 15 20 28 27 27 29 29 31 32 33 34 32 30 29 28 29 29 30 30 32 34 35 36 35 35 35 35 35 35 36 36 35 35 34 34 36 37 38 38 37 35 34 33 32 31 30 29 28 29 29 29 29 27 25 24 23 23 23 24 24 25 24 23 23 22 22 20 19 20 20 18 16 16 15 15 16 15 13
4 3 4 4 4 3 2 1 1 2 3 2 2 3 6 9 9 11 18 24 27 30 32 33 33 32 34 35 35 36 36 35 33 31 31 30 31 31 33 34 34 36 37 36 36 36 36 36 36 36 36 36 34 34 35 36 37 38 38 36 35 34 32 31 30 31 31 31 32 32 31 29 28 26 25 24 24 24 24 24 25 24 24 23 22 21 21 21 20 19 17 17 17 17 18 18 16
6 5 5 3 4 5 3 3 3 1 3 1 1 4 5 7 10 10 15 20 24 28 30 30 33 35 35 35 36 39 39 39 37 35 34 33 33 33 33 34 34 36 37 37 36 36 35 35 36 36 37 36 35 34 34 35 37 38 39 38 37 36 35 34 35 35 36 36 35 35 34 32 30 29 28 27 27 26 26 25 25 25 24 24 23 22 22 22 20 19 18 18 18 18 18 18 18
7 8 8 6 6 5 3 5 4 2 4 3 2 3 5 4 7 9 7 6 12 21 22 23 29 33 34 34 36 40 41 40 40 39 38 36 34 34 34 34 35 36 36 36 35 34 34 34 35 36 37 36 35 34 34 34 36 38 40 40 41 41 41 41 40 40 39 38 37 36 35 33 32 32 31 30 29 29 28 28 27 27 26 26 25 24 23 22 21 21 20 19 19 18 17 19 20
7 8 10 9 7 5 5 6 4 1 3 3 4 4 5 5 7 9 8 5 8 12 13 19 28 30 33 36 38 40 40 41 42 41 40 39 37 36 35 35 35 35 34 34 34 35 35 35 35 35 36 36 35 35 34 35 37 38 40 41 42 42 43 43 41 40 39 38 37 36 35 35 34 34 33 32 32 31 30 29 28 28 27 27 26 25 25 24 22 22 21 21 20 19 19 21 20
5 7 11 10 8 5 5 6 3 2 1 3 1 3 3 6 7 9 9 10 11 10 10 15 24 30 33 37 40 41 42 43 43 43 41 40 39 38 36 34 33 32 32 33 35 35 36 36 35 35 35 35 35 35 35 36 37 38 39 40 41 43 43 42 40 39 39 38 37 36 35 35 35 35 35 34 33 32 31 29 29 28 28 28 27 27 26 25 24 23 23 22 21 21 22 22 20
4 8 11 10 7 2 2 2 2 1 1 4 3 2 2 7 6 5 6 8 10 12 12 12 20 30 35 39 41 43 43 43 43 43 42 41 40 38 36 33 31 30 30 32 34 34 34 35 35 35 35 35 35 35 36 37 37 37 38 40 41 42 42 42 40 40 39 39 38 37 36 36 36 36 36 35 34 32 31 30 29 29 28 28 29 29 28 27 26 26 25 24 23 23 24 22 21
4 9 8 5 4 3 3 1 3 2 1 5 5 4 3 6 4 3 3 4 8 11 10 11 20 30 34 37 40 41 42 42 41 41 40 39 39 37 36 34 32 31 30 31 31 33 34 34 35 36 35 36 37 37 38 38 38 38 38 40 41 41 42 42 41 41 41 40 40 38 37 37 36 36 36 35 35 33 32 31 30 30 29 29 29 29 29 29 29 29 27 26 25 25 25 24 22
8 7 6 6 4 4 3 2 4 1 6 6 8 8 4 5 4 4 4 5 8 10 8 10 17 25 30 33 37 39 40 41 41 41 39 38 38 38 37 36 35 33 32 32 31 32 33 34 35 36 35 36 37 39 39 39 40 39 39 39 39 40 40 41 42 42 42 42 41 40 39 39 38 37 37 36 36 34 33 32 32 31 30 31 31 31 30 30 30 30 28 27 27 27 26 25 24
10 6 6 6 2 3 2 3 3 4 8 4 7 9 6 7 6 3 5 6 6 8 8 10 13 19 25 28 31 34 37 39 40 41 41 40 40 40 40 40 38 36 35 35 33 32 33 34 36 36 36 36 38 39 40 41 41 41 40 39 39 39 39 41 42 42 42 42 42 41 40 40 40 39 38 38 38 36 35 35 34 33 33 33 33 33 31 30 30 29 28 28 29 28 27 27 28
5 6 8 7 3 2 3 2 2 5 5 1 5 6 5 9 6 6 11 12 11 11 12 14 15 20 24 24 24 26 31 36 38 39 41 42 42 42 43 42 41 40 38 37 35 34 34 34 36 37 37 36 38 40 41 41 42 42 41 41 40 40 40 40 41 41 41 41 41 41 41 41 41 41 41 40 39 38 37 36 36 35 36 35 34 34 33 31 31 30 30 30 30 29 29 29 29
8 9 11 9 6 5 7 4 1 4 3 1 4 4 3 7 4 9 16 17 19 19 20 21 18 17 20 18 16 16 22 29 34 37 40 41 42 42 43 43 43 43 41 39 37 36 36 36 37 38 37 37 39 40 41 41 42 42 43 43 42 41 41 41 41 41 40 40 41 41 41 41 42 42 41 41 40 38 38 37 37 37 37 36 35 35 34 33 32 32 32 32 32 31 30 29 28
13 8 8 9 6 6 7 5 4 4 2 2 3 3 4 4 3 8 12 16 21 23 24 26 23 22 22 19 17 16 16 18 23 29 34 38 39 39 40 41 42 43 43 42 41 39 38 38 38 39 38 39 41 41 41 42 41 42 44 45 43 42 42 41 41 41 41 41 41 41 41 41 42 42 41 40 39 39 39 38 38 38 37 37 36 36 35 34 33 33 34 34 34 33 31 30 27
7 3 4 6 5 5 3 3 5 5 2 2 3 3 4 4 7 11 10 13 16 17 19 20 23 27 26 25 26 25 20 16 15 19 23 28 31 33 35 36 38 40 41 42 42 41 40 39 38 39 38 39 40 41 41 41 41 42 44 45 44 43 43 43 42 42 42 42 41 41 41 41 41 41 40 39 39 38 38 38 38 38 38 38 37 36 35 35 33 33 34 35 36 36 33 30 27
4 4 5 3 3 5 4 0 1 5 2 3 4 6 4 2 9 12 11 14 12 10 11 13 17 20 20 24 28 27 24 20 18 17 17 20 22 23 25 27 30 34 37 38 39 40 40 38 38 37 37 37 38 39 40 40 40 41 43 43 44 44 43 43 43 42 42 42 42 42 42 41 41 40 39 38 37 37 36 37 37 38 38 38 37 36 36 35 34 33 34 35 35 34 32 30 27
6 7 8 3 3 3 3 1 1 3 4 3 5 9 4 1 6 6 7 13 12 9 8 11 15 15 16 23 26 26 24 22 20 19 18 18 18 18 18 19 21 25 29 31 32 33 34 34 34 34 33 33 34 35 37 38 39 40 41 42 43 43 44 43 43 43 43 43 43 43 42 42 41 39 38 37 36 36 35 36 36 37 37 37 37 37 36 36 35 33 32 32 30 29 29 29 28
2 9 11 7 2 2 4 4 3 4 6 5 4 8 5 6 7 4 4 8 9 9 8 8 11 14 19 24 25 23 21 19 17 16 16 16 17 17 17 17 18 20 22 23 24 25 27 27 27 28 27 27 28 31 33 35 37 38 39 40 41 43 44 44 44 44 44 44 44 44 43 42 41 39 38 37 36 35 35 35 36 36 37 37 37 37 37 36 35 33 31 29 27 26 27 29 31
2 6 9 6 4 4 7 5 3 5 7 6 3 2 4 7 7 7 9 11 10 9 7 7 11 17 23 25 23 19 15 13 12 12 14 15 15 16 16 17 19 20 22 22 22 23 23 23 23 24 24 25 26 28 30 32 34 36 38 39 41 42 43 44 44 44 44 45 44 43 43 41 40 39 38 37 36 36 35 35 36 36 37 37 37 38 38 37 36 33 30 27 26 26 29 31 32
5 8 9 8 4 2 3 4 3 4 4 4 3 3 6 5 5 11 14 15 14 11 7 7 13 19 22 20 17 13 11 11 10 11 11 11 12 12 13 14 16 17 19 21 22 23 23 23 23 23 23 24 25 26 28 29 31 34 36 38 39 41 42 43 43 43 43 44 43 43 42 40 39 39 38 38 37 36 36 36 35 36 37 38 39 39 39 39 37 33 29 28 27 26 27 30 31
12 10 11 11 7 4 4 5 3 2 2 3 3 6 7 5 5 9 12 13 11 9 9 9 14 19 16 13 11 10 10 10 9 9 9 9 10 10 12 13 13 14 15 16 18 20 21 23 24 25 26 25 26 26 28 29 30 32 34 35 37 38 39 40 41 41 42 42 41 41 40 39 39 39 39 38 37 37 37 36 36 36 37 38 39 40 41 42 39 34 30 29 30 27 26 29 32
Wind_Direction
328 338 332 323 331 340 4 12 1 318 76 3 283 113 282 238 104 75 66 67 61 50 67 66 54 55 80 113 111 89 62 50 196 158 157 147 136 141 167 180 186 178 163 161 161 160 156 145 148 150 148 151 142 135 113 85 78 78 67 62 67 73 82 90 91 92 99 107 109 111 114 114 117 119 108 101 102 106 104 102 94 88 90 89 86 84 84 84 83 83 83 82 82 83 85 87 88
338 341 334 327 342 353 352 9 24 345 37 15 304 133 249 31 63 71 89 88 100 105 81 73 60 62 97 112 94 70 53 55 112 123 129 138 140 152 167 176 185 183 168 163 164 164 162 153 154 156 156 155 147 141 112 94 92 80 60 55 66 76 95 104 101 102 104 108 112 112 109 107 109 110 106 101 99 103 103 102 95 88 85 85 84 82 82 86 88 87 87 84 85 85 85 87 88
343 340 341 338 352 351 332 11 97 28 38 141 279 284 69 68 86 97 97 100 105 103 88 83 63 61 84 85 54 64 82 81 109 121 128 140 146 156 168 180 188 187 171 165 167 167 167 164 161 163 163 162 150 137 119 110 99 72 59 61 77 90 105 110 108 110 110 111 113 116 114 108 107 106 107 106 104 104 104 100 96 93 89 88 84 82 85 87 89 88 88 87 87 87 88 89 88
344 338 342 342 354 353 2 47 141 133 29 215 263 18 92 104 112 99 97 104 104 95 91 86 60 66 77 84 79 85 106 118 128 133 138 147 152 158 174 181 187 190 176 169 169 170 172 171 170 169 168 166 159 146 131 113 88 58 61 74 92 105 111 111 112 116 115 115 117 117 116 112 110 110 107 107 110 108 105 102 100 99 96 96 90 88 90 87 88 87 87 86 87 87 87 85 84
344 332 326 340 356 343 60 56 88 82 309 214 111 91 120 121 122 102 91 101 102 86 94 90 68 89 81 82 96 93 111 127 142 144 143 155 157 158 174 176 177 182 178 173 173 176 173 173 177 177 175 171 169 163 141 121 93 70 76 89 105 114 120 118 118 122 121 120 120 120 118 115 112 114 112 106 110 108 106 109 108 106 107 107 100 95 94 90 89 87 87 86 86 86 84 82 79
337 331 315 334 335 305 40 21 330 357 269 187 110 135 134 125 122 107 92 93 95 83 86 86 98 110 81 77 87 98 134 140 148 151 148 157 160 158 165 172 177 179 178 174 177 180 173 174 179 178 181 177 176 173 154 142 125 114 102 100 119 122 124 125 122 123 124 123 122 122 122 124 120 117 116 107 105 105 107 114 117 117 120 120 111 107 104 96 91 87 87 86 86 85 82 80 75
339 358 350 347 332 316 94 218 265 252 254 137 111 141 134 130 124 112 103 91 86 84 83 85 106 99 84 115 94 78 143 165 153 152 155 158 163 163 159 168 182 182 182 175 175 179 174 173 174 173 176 178 179 179 168 158 152 145 122 114 129 129 125 125 126 124 123 125 126 126 125 127 126 120 117 111 105 106 110 116 121 127 131 130 116 111 107 97 92 89 88 87 86 82 79 75 70
346 0 4 13 356 11 89 272 266 202 246 83 114 139 139 132 123 116 125 111 110 106 92 89 99 84 90 136 104 82 140 164 157 153 163 162 167 169 164 173 183 183 190 182 173 177 173 169 167 168 169 174 179 181 176 165 163 144 125 129 131 130 127 125 128 130 131 132 134 133 127 121 121 121 119 115 112 113 117 118 120 127 132 134 124 111 104 97 96 93 90 88 83 79 74 70 66
345 347 3 44 327 356 344 301 276 214 247 108 101 126 140 131 118 116 123 108 121 119 100 83 74 100 114 107 104 127 142 154 158 155 164 166 171 173 170 180 188 188 194 189 180 176 171 168 167 167 168 174 178 181 178 165 166 149 128 128 130 130 131 134 136 136 137 130 125 127 126 123 122 123 123 119 116 120 125 126 123 123 126 130 127 111 102 100 97 93 89 85 81 77 72 67 64
341 345 1 52 37 359 326 299 232 211 216 142 102 115 131 132 128 124 120 108 120 118 108 93 82 125 125 106 115 142 156 166 165 163 165 168 171 171 173 184 192 194 195 191 182 180 174 169 169 171 173 176 180 184 179 173 169 152 132 125 133 138 137 146 149 147 139 123 116 118 122 126 125 123 124 123 119 121 127 133 131 126 124 123 121 110 103 99 95 93 87 83 78 74 69 65 62
342 327 175 50 34 25 276 299 303 231 283 85 77 102 111 123 129 122 118 112 123 120 120 114 94 127 125 113 131 149 177 192 191 179 168 168 169 170 179 185 193 198 196 192 185 183 178 173 174 176 177 180 184 184 177 175 168 144 132 132 140 146 142 148 153 154 141 126 125 122 123 125 123 121 119 124 124 122 126 132 133 126 122 117 114 109 105 101 96 93 87 81 75 70 67 64 61
336 284 89 150 218 208 230 304 310 9 359 7 26 86 98 114 114 122 127 122 137 132 126 121 99 131 119 111 142 155 181 197 199 182 165 163 167 173 184 189 194 198 195 195 190 185 182 179 177 175 178 183 186 183 176 171 165 149 137 138 143 152 151 152 157 155 147 139 137 130 129 127 120 122 120 126 128 125 126 127 126 121 118 114 112 111 106 102 97 93 87 80 74 69 65 62 59
340 318 62 216 219 208 256 299 278 46 3 339 326 77 106 121 88 131 140 128 142 136 127 130 139 133 103 118 148 161 177 192 193 173 165 163 170 176 185 193 196 197 194 195 193 189 187 183 179 178 181 185 189 184 178 177 169 156 147 144 144 155 157 159 165 162 159 152 145 142 139 134 125 126 123 121 123 124 123 121 121 119 117 115 114 113 107 101 96 91 84 78 73 68 64 60 55
340 344 84 223 292 348 272 275 125 77 346 292 310 25 98 104 67 102 129 105 98 129 140 138 137 125 111 131 155 169 174 192 194 175 173 171 176 179 185 193 196 198 195 192 193 193 189 185 183 184 185 187 191 187 182 180 169 159 156 154 150 158 161 160 170 174 171 161 153 155 149 139 133 130 124 116 118 120 120 120 121 120 118 116 115 111 106 102 96 89 81 76 71 66 61 55 50
276 344 104 173 330 345 285 255 153 109 206 261 307 27 80 94 78 90 114 108 96 130 146 141 131 127 155 172 189 180 176 194 196 185 183 181 181 181 185 189 194 199 195 191 192 195 193 188 187 188 190 191 190 187 184 179 170 165 162 162 159 159 166 165 165 169 170 166 161 162 155 145 140 134 126 120 122 122 120 122 122 122 120 117 115 110 104 100 93 86 79 73 69 66 59 51 50
223 326 65 133 297 314 290 308 86 109 235 247 142 79 86 88 83 87 101 123 131 136 144 140 145 134 167 193 199 176 177 193 197 196 192 189 187 181 184 188 193 198 195 192 190 194 194 191 192 194 195 196 195 189 187 184 175 171 169 168 168 163 169 172 164 155 159 165 167 167 161 150 145 137 131 131 130 128 126 126 126 125 122 118 115 109 104 101 94 85 78 72 67 64 58 54 58
206 278 71 260 254 249 277 342 54 140 215 245 103 85 106 88 82 99 108 123 132 143 139 121 157 173 179 185 161 169 180 193 200 203 198 194 191 184 184 187 190 195 195 197 195 193 193 194 195 198 202 202 200 197 194 192 183 178 177 173 174 173 174 178 170 159 157 165 172 172 165 155 150 144 141 141 139 136 134 133 132 129 125 120 115 112 109 103 95 85 77 69 64 61 60 59 64
188 171 125 229 231 227 224 199 204 144 158 198 99 86 107 119 110 109 121 136 134 143 152 147 153 170 181 155 158 172 183 194 203 208 203 197 194 189 188 188 188 190 190 198 206 197 193 199 198 199 206 205 202 202 201 198 191 188 186 181 180 182 183 187 179 168 166 171 178 176 169 164 158 151 150 150 147 142 141 141 138 136 132 124 119 115 112 105 95 83 72 60 55 50 49 50 51
180 114 148 215 229 223 138 168 136 95 140 148 112 102 100 102 124 118 131 177 154 148 155 166 151 138 151 160 169 180 187 197 207 211 209 202 197 193 192 190 187 188 191 197 208 205 198 201 200 199 206 208 203 203 203 200 197 195 194 188 185 189 191 193 188 178 177 180 184 183 176 173 166 159 162 160 155 150 148 149 147 147 141 133 129 121 114 105 89 72 53 33 29 17 14 20 22
176 132 170 234 239 170 99 122 102 87 129 132 124 117 103 91 106 132 169 179 180 183 176 177 165 158 163 170 177 185 192 201 209 212 211 206 200 196 197 194 190 193 196 197 203 208 207 205 200 199 208 210 201 199 201 200 198 198 200 194 188 193 196 196 195 187 186 189 189 191 187 180 174 170 170 170 167 161 158 159 159 160 155 147 139 134 130 111 72 48 22 1 356 356 7 8 12
175 156 175 216 247 197 124 125 118 112 114 122 135 116 107 106 120 172 206 54 266 219 199 211 208 188 179 179 186 191 197 203 208 212 211 205 199 196 200 202 198 197 198 198 200 207 213 211 203 200 209 210 202 201 201 200 201 199 199 195 191 195 199 200 198 191 193 198 197 201 199 184 178 179 179 179 180 176 172 173 173 172 170 162 154 158 148 117 328 348 343 335 334 356 20 3 3
172 181 177 180 276 219 158 139 134 140 89 93 98 99 119 131 155 239 220 190 245 209 192 229 231 209 199 193 195 197 203 207 209 213 210 202 198 194 199 204 202 199 200 204 203 207 212 210 206 206 210 212 210 211 208 205 203 200 199 196 193 197 200 201 201 196 196 203 206 209 209 189 179 184 188 187 189 188 186 185 185 185 184 176 174 186 179 265 289 313 305 307 332 357 19 353 351
168 214 197 198 248 176 156 151 133 87 35 80 82 55 283 154 286 262 230 223 238 238 239 283 246 214 216 208 201 204 209 213 214 217 212 200 196 194 198 204 207 206 205 208 205 207 211 205 204 211 215 215 215 216 214 210 205 202 199 198 200 202 204 203 202 203 199 205 212 213 214 199 184 189 195 194 194 197 196 194 196 197 197 191 195 213 231 258 278 291 287 298 345 349 6 345 349
182 218 206 206 228 151 151 168 137 58 19 54 356 317 300 243 283 261 236 238 245 246 255 279 278 207 208 207 206 212 216 219 220 222 217 201 196 193 199 206 211 213 211 211 210 208 213 209 205 211 218 219 217 216 214 211 211 208 201 200 205 208 211 208 205 209 203 206 214 213 212 208 196 195 199 199 198 201 204 204 205 206 207 210 216 230 247 269 285 288 289 304 318 313 320 320 340
214 206 200 202 213 173 160 179 163 277 268 294 275 277 285 276 271 254 254 255 246 239 249 260 256 205 203 208 212 214 216 218 219 219 214 201 195 188 195 210 214 216 216 216 218 216 217 216 212 215 220 221 220 216 212 211 214 215 210 209 211 212 217 214 209 213 208 209 217 212 211 215 208 201 203 203 201 204 208 209 210 212 213 222 232 242 256 271 278 278 281 287 288 282 284 288 307
212 200 198 199 206 193 175 193 204 289 280 284 272 271 283 282 275 259 260 267 254 240 243 248 238 212 206 211 214 215 215 214 214 215 211 201 197 190 189 203 213 217 219 220 223 223 223 221 219 221 223 223 221 216 213 212 213 217 219 219 220 217 219 219 215 215 211 214 220 216 214 219 214 208 209 209 207 207 210 212 216 220 221 229 243 253 258 264 268 270 268 274 278 276 282 279 270
194 190 189 186 187 187 184 218 244 302 303 294 273 262 278 274 248 245 251 273 280 246 233 228 219 213 211 212 214 217 219 216 215 213 209 203 200 197 192 193 207 216 218 219 223 225 226 224 222 222 222 222 221 218 216 214 214 219 221 220 226 224 220 223 223 219 214 215 220 220 220 222 220 214 212 213 212 210 212 217 220 224 229 234 245 253 262 266 265 268 266 273 282 280 288 265 240
181 173 160 178 172 186 207 241 263 280 288 284 275 270 277 271 228 239 251 259 267 249 224 213 210 211 212 213 215 217 222 220 216 212 210 211 207 203 199 196 201 210 216 219 223 225 226 225 223 222 220 219 220 219 219 217 218 225 225 220 227 229 224 227 229 226 221 219 220 223 223 225 224 220 217 217 215 212 215 221 224 228 236 240 246 253 266 271 263 266 269 274 279 280 309 222 217
172 169 152 208 249 269 237 229 249 257 245 244 2 311 270 246 233 244 258 263 256 240 221 212 211 210 210 212 216 220 224 221 216 215 216 221 218 210 205 203 201 206 215 221 225 227 229 227 224 223 222 220 220 220 222 222 220 227 229 224 228 230 229 232 233 232 229 225 224 225 226 228 230 227 224 222 218 216 217 223 227 231 239 246 252 258 265 267 262 261 260 265 273 286 312 296 252
159 169 154 166 1 273 234 225 240 245 247 247 22 299 251 223 239 248 268 271 249 226 214 214 215 212 207 210 216 221 223 221 219 219 220 222 223 219 213 208 205 206 214 220 225 228 230 230 228 227 226 224 223 221 223 225 224 225 228 228 231 232 233 237 236 234 233 230 227 228 230 231 233 233 231 228 223 220 221 226 230 231 238 249 258 264 268 267 262 258 249 251 262 273 266 254 269
142 147 155 168 188 227 217 215 220 230 248 238 162 252 256 246 252 257 283 287 242 215 211 216 222 217 209 209 215 221 223 224 224 223 222 223 224 224 220 214 209 208 213 219 225 228 230 231 231 230 229 227 226 224 224 226 227 226 228 231 233 233 235 238 237 234 235 233 228 227 231 232 233 236 237 233 228 226 225 228 232 236 242 250 259 266 270 265 257 252 248 249 257 256 236 223 232
151 155 176 200 205 221 236 214 205 213 236 209 169 252 275 252 251 251 259 271 227 211 215 220 225 223 214 212 215 220 223 225 227 226 226 225 225 225 223 220 214 211 214 220 225 229 230 231 231 231 231 231 229 228 228 228 228 229 229 231 234 235 236 238 237 236 237 236 231 225 229 232 232 236 238 236 233 232 231 233 236 241 247 251 256 263 265 261 252 247 243 246 260 249 225 222 236
217 181 171 183 194 224 295 243 213 209 207 191 193 235 278 251 271 257 235 227 208 206 216 221 224 224 219 216 216 219 221 222 224 227 228 227 225 226 225 224 220 215 216 220 224 227 229 230 231 231 231 233 233 231 230 230 229 230 231 231 234 235 235 238 238 236 236 237 234 227 227 231 232 236 238 236 235 237 237 239 240 241 247 252 255 259 261 259 251 247 244 247 252 237 221 224 236
202 189 183 193 187 195 222 269 228 203 188 198 208 231 252 250 285 279 227 205 206 206 214 222 224 225 223 220 218 219 220 221 225 227 228 227 226 226 227 227 225 221 218 219 223 227 230 231 231 232 231 231 233 232 231 231 231 230 231 232 234 234 235 237 237 236 237 239 239 233 230 231 231 234 240 239 236 237 240 242 243 243 249 254 257 259 260 258 251 247 245 244 246 236 225 227 228
169 180 204 222 194 196 201 226 226 180 180 211 191 228 252 249 262 265 249 223 215 218 226 233 233 230 227 222 218 219 220 224 231 233 229 227 226 225 227 228 228 226 222 218 220 225 229 232 233 233 232 231 231 231 230 230 231 230 230 230 232 232 232 232 234 236 237 240 241 239 235 234 234 235 240 243 242 241 243 245 247 248 252 257 259 258 256 256 256 249 237 238 244 239 234 236 235
170 180 195 206 198 216 207 215 216 168 167 217 198 221 249 250 242 251 255 250 237 238 244 244 241 237 232 225 220 220 221 227 236 238 232 227 226 226 226 228 229 229 227 222 219 221 225 229 231 232 233 232 230 229 227 226 228 228 228 229 230 231 231 232 235 238 238 239 242 243 240 238 237 238 240 244 246 245 247 249 250 251 253 255 256 255 254 256 258 251 235 235 242 238 235 233 237
175 176 199 208 205 234 215 217 222 173 161 220 215 224 249 252 241 239 249 254 251 246 243 243 242 239 235 229 223 222 224 232 241 238 233 229 227 227 226 227 229 229 229 227 224 222 223 226 229 230 231 231 228 226 225 226 228 230 230 231 232 233 234 234 235 237 239 240 242 244 245 243 241 240 241 244 247 248 249 250 251 251 251 253 255 255 254 253 253 246 233 233 240 238 236 234 238
182 176 197 209 212 242 229 211 212 179 173 236 223 223 250 253 248 243 245 248 251 248 244 243 244 241 237 232 227 226 228 234 238 236 233 230 228 227 226 226 227 228 229 228 227 226 224 225 229 230 230 231 229 226 225 226 230 233 235 237 237 237 237 237 239 242 244 244 245 246 248 249 248 245 244 246 248 249 249 249 250 250 250 252 254 253 251 248 246 242 233 231 237 237 237 236 233
203 171 179 211 221 249 299 7 161 177 187 248 236 221 251 260 257 252 247 243 247 249 248 247 246 243 238 233 229 228 228 231 232 232 231 228 228 228 226 226 227 229 230 230 230 230 228 228 229 230 230 231 230 228 226 226 229 233 236 238 239 240 240 241 243 246 247 247 248 249 250 251 251 250 249 248 249 249 249 249 249 248 248 249 250 249 246 245 245 243 236 232 235 239 244 240 225
216 164 167 214 219 207 262 27 122 197 195 218 255 254 263 269 269 261 247 242 246 249 248 248 246 243 241 239 234 230 228 230 230 231 230 228 228 227 225 227 228 229 230 230 230 231 231 231 230 230 230 231 232 230 229 227 228 230 233 236 238 240 242 243 243 242 243 245 246 248 250 250 250 251 251 251 251 252 251 249 248 247 247 247 247 246 244 244 245 245 242 237 235 240 246 242 226
217 197 181 201 216 215 215 170 154 226 310 307 328 304 280 253 255 260 250 240 243 247 245 245 244 242 245 245 239 234 232 232 231 231 231 227 227 227 228 229 229 228 228 229 229 230 232 232 232 233 233 233 233 232 232 230 228 228 229 232 233 234 237 238 238 238 237 238 242 244 247 248 250 251 252 252 253 254 253 252 250 248 247 246 245 243 244 246 246 246 243 239 239 242 245 243 235
219 213 200 192 212 230 185 146 136 60 319 264 159 283 283 266 256 260 265 245 239 246 242 240 243 241 242 244 239 235 233 233 233 234 234 231 229 230 230 230 229 229 230 230 230 231 232 234 233 234 236 236 236 235 234 233 232 231 229 230 230 231 232 233 235 237 237 238 240 242 244 247 249 251 253 254 255 256 256 255 251 249 248 246 246 244 243 244 244 244 242 239 240 245 244 241 238
218 202 185 192 213 225 157 149 164 151 269 258 156 197 272 297 282 265 271 276 252 249 243 238 240 240 239 240 239 236 234 234 233 234 235 234 232 230 229 229 230 232 233 232 232 232 232 234 234 234 237 239 239 238 236 235 236 235 234 234 235 235 236 239 241 242 243 244 244 244 245 246 248 250 252 254 255 257 257 255 251 249 249 248 247 245 244 244 244 245 244 243 241 242 242 240 238
220 166 163 193 209 213 177 161 193 203 271 308 206 180 271 280 268 262 254 260 266 258 248 239 237 237 237 238 238 238 237 236 233 231 232 232 233 231 230 231 233 235 236 234 233 233 232 233 234 234 237 240 242 242 240 239 238 238 238 237 238 240 242 245 248 248 249 250 250 249 247 247 248 249 252 253 255 256 255 253 250 249 249 248 247 246 246 245 245 245 245 244 240 238 239 242 243
223 159 166 191 188 200 273 180 176 66 31 286 245 151 279 264 258 277 248 239 258 256 247 240 235 235 236 237 238 238 238 237 234 231 230 230 232 233 234 234 235 237 238 237 236 235 234 234 235 235 237 239 241 243 243 243 242 241 241 240 240 242 244 246 248 250 251 251 252 253 250 248 248 249 251 252 254 254 253 251 249 248 248 246 246 247 248 247 244 243 245 245 241 237 237 240 247
188 155 151 141 112 59 5 151 130 64 299 238 207 167 250 265 241 251 249 223 240 248 245 239 237 236 235 236 238 239 239 236 234 231 231 231 232 235 238 236 236 238 239 240 239 237 236 236 235 235 236 238 239 241 243 244 244 244 243 242 242 243 244 245 246 247 249 250 251 252 251 250 248 248 250 252 253 253 253 252 250 248 247 246 246 247 247 246 244 242 245 247 243 241 240 241 247
129 121 105 86 53 42 37 28 89 93 259 219 178 172 199 272 250 206 214 225 226 231 242 246 244 242 239 237 239 241 240 236 234 232 231 233 235 238 240 239 239 239 238 239 239 236 236 235 235 236 237 238 239 240 242 243 244 245 245 245 245 246 245 244 245 247 248 249 250 251 252 252 251 250 250 252 253 253 252 253 252 249 248 247 247 247 247 247 246 245 245 244 242 243 243 244 246
132 123 126 116 55 22 25 359 70 215 250 222 173 164 169 238 260 235 239 257 242 224 229 240 245 243 240 239 242 245 243 238 234 231 230 231 234 237 238 239 240 240 238 237 237 236 235 234 235 237 238 239 240 241 242 244 245 246 248 248 248 248 247 246 247 248 249 250 251 252 252 253 253 252 251 252 253 252 251 252 251 249 248 248 248 248 249 249 248 245 244 243 242 244 245 245 244
148 139 146 146 161 185 201 216 177 218 249 241 161 147 180 239 257 257 259 265 254 235 231 236 241 244 244 243 247 251 247 240 235 232 231 231 233 236 237 239 240 239 239 239 238 237 235 235 235 236 238 240 242 242 244 245 246 248 250 249 249 249 249 249 249 250 251 252 253 253 252 253 254 254 254 254 255 254 252 252 252 251 250 251 251 250 250 249 247 244 242 242 243 245 246 245 245
185 169 167 175 166 181 202 196 210 234 239 209 145 129 254 271 266 234 242 253 254 252 248 247 249 249 252 254 254 257 249 241 237 234 233 233 235 238 240 241 242 241 241 241 240 239 238 237 237 238 240 242 242 243 245 246 248 250 251 250 251 251 251 251 251 252 252 252 253 254 255 256 256 258 259 260 261 258 256 255 255 254 253 253 252 251 251 249 247 244 242 243 244 247 248 247 246
194 183 171 184 172 182 194 181 203 219 228 219 166 144 211 226 248 236 237 254 264 264 255 250 256 259 261 264 263 262 256 247 242 239 238 238 239 241 242 243 243 243 242 242 241 241 240 240 240 242 243 244 243 244 245 246 249 250 250 250 251 251 252 253 254 255 254 254 254 255 256 257 258 260 261 262 262 260 258 256 255 254 253 252 252 251 251 248 246 244 244 244 245 246 247 247 245
202 158 159 199 183 164 159 170 188 158 111 212 203 232 214 203 277 282 268 263 266 269 259 249 253 258 260 260 258 258 258 254 250 246 244 242 242 242 243 244 245 244 243 242 242 242 242 243 244 245 246 246 245 244 245 247 249 250 249 250 252 252 253 253 254 255 255 256 256 255 256 257 258 260 261 262 261 259 258 256 254 253 252 251 251 251 250 248 246 245 245 247 247 245 243 243 243
180 164 182 194 117 124 119 256 104 101 186 227 194 245 280 314 284 281 271 266 266 268 267 254 248 251 251 250 252 254 254 254 253 252 250 247 245 245 246 248 248 246 244 243 243 244 245 247 247 248 249 249 248 248 248 248 248 249 250 251 252 252 253 254 255 256 256 256 256 256 257 257 258 259 259 260 260 259 258 256 254 253 251 251 251 250 250 249 247 248 249 250 249 245 241 241 242
153 181 179 126 50 75 100 201 45 103 233 250 201 228 250 210 258 276 262 258 263 260 257 256 252 249 246 247 250 253 254 256 258 257 253 246 244 246 247 247 247 246 245 244 245 246 248 250 251 252 252 253 254 254 253 251 250 249 250 251 252 253 254 255 256 256 256 255 255 256 256 256 257 258 258 259 259 258 257 255 253 252 251 250 250 250 249 248 249 251 252 251 249 245 241 242 243
181 174 164 147 165 194 158 187 201 189 225 258 231 227 223 202 225 274 262 240 251 255 243 244 248 243 243 247 251 256 257 256 254 251 247 240 237 240 241 240 238 238 238 239 240 241 243 246 248 249 250 251 252 254 253 252 251 250 251 251 252 253 254 255 255 255 254 255 256 256 256 256 257 257 257 258 258 258 256 255 253 252 251 249 249 248 248 247 249 251 251 250 250 247 243 243 244
356 139 161 175 183 185 180 182 175 182 215 248 266 231 237 227 204 211 240 245 246 242 227 227 235 235 238 244 252 258 254 245 238 235 237 236 234 236 237 237 237 236 235 234 232 233 235 238 240 241 243 244 245 247 248 249 249 249 250 250 250 251 252 253 254 254 254 255 256 256 255 256 256 256 257 257 257 257 256 255 253 252 251 249 248 247 246 246 248 250 251 251 251 249 245 246 250
151 159 182 192 177 142 177 188 154 143 189 234 264 260 254 252 198 192 214 234 241 228 204 215 229 232 238 243 247 245 231 223 225 227 231 231 232 234 234 236 236 234 234 232 232 234 235 237 237 238 238 239 240 242 243 245 246 247 248 249 250 251 251 252 252 253 254 255 256 256 255 255 255 256 256 256 256 255 255 254 253 251 250 250 249 248 247 246 245 248 251 250 251 251 250 252 255
172 179 186 184 173 140 167 207 185 130 183 193 217 259 258 238 201 197 206 226 235 208 187 204 221 227 234 230 218 207 204 209 214 219 224 227 230 233 233 235 234 231 230 229 231 234 237 239 240 240 240 240 241 242 243 245 245 245 246 247 249 250 251 251 251 252 253 254 254 254 254 254 253 254 255 254 254 254 254 254 253 252 251 249 248 248 247 245 244 246 249 249 248 249 253 255 252